Location: Frankfurt+am+Main
(50.1100°N, 8.4815°E)
Time: 00:08:37
(UTC+01:00)

ISS - Pass Details

Date: 12 November 2017
Orbit: 401 x 407 km, 51.6° (Epoch: 18 November)

Event Time Altitude Azimuth Distance (km) Brightness Sun altitude
Exits shadow 05:52:53 44° 278° (W) 566 -3.6 -16.3°
Maximum altitude 05:53:47 80° 199° (SSW) 413 -3.9 -16.1°
Drops below altitude 10° 05:57:03 10° 112° (ESE) 1,453 0.3 -15.6°
Sets 05:59:07 0° 111° (ESE) 2,311 1.7 -15.3°
